This demonstration page uses our WeatherBlox Daily Observations layout. Learn more.

Left ArrowRight Arrow

31.84235, -102.49876

Hourly Observations for August 6, 2017

Temp ( °F °C ) Dew Point ( °F °C ) Humidity (%) Winds ( mph kmh ) Pressure ( in mb ) Visibility ( mi km ) Precip ( " mm )
12:53 am 00:53 Clear 81 27.2 66 18.9 61 61 SSW 15 24 29.78 1009 10 16 0.00 0.00
1:53 am 01:53 Clear 79 26.1 66 18.9 65 65 SSW 17 28 29.77 1008 10 16 0.00 0.00
2:53 am 02:53 Clear 77 25 66 18.9 69 69 SW 8 13 29.77 1008 10 16 0.00 0.00
3:53 am 03:53 Clear 76 24.4 66 18.9 72 72 WSW 6 9 29.75 1008 10 16 0.00 0.00
4:53 am 04:53 Clear 75 23.9 67 19.4 76 76 SSW 8 13 29.72 1007 10 16 0.00 0.00
5:53 am 05:53 Clear 75 23.9 67 19.4 76 76 SSW 12 19 29.72 1007 10 16 0.00 0.00
6:53 am 06:53 Clear 74 23.3 67 19.4 79 79 SSW 7 11 29.75 1007 10 16 0.00 0.00
7:53 am 07:53 Sunny 74 23.3 67 19.4 79 79 SSW 8 13 29.74 1007 10 16 0.00 0.00
8:53 am 08:53 Sunny 76 24.4 67 19.4 74 74 S 7 11 29.76 1008 10 16 0.00 0.00
9:53 am 09:53 Sunny 82 27.8 66 18.9 58 58 SW 7 11 29.77 1008 10 16 0.00 0.00
10:53 am 10:53 Sunny 86 30 65 18.3 49 49 W 9 15 29.77 1008 10 16 0.00 0.00
11:53 am 11:53 Sunny 89 31.7 65 18.3 45 45 SW 9 15 29.78 1008 10 16 0.00 0.00
12:53 pm 12:53 Sunny 92 33.3 63 17.2 38 38 Calm 29.76 1008 10 16 0.00 0.00
1:53 pm 13:53 Sunny 94 34.4 61 16.1 33 33 VRB 5 7 29.75 1008 10 16 0.00 0.00
2:53 pm 14:53 Sunny 96 35.6 60 15.6 30 30 S 8 13 29.74 1007 10 16 0.00 0.00
3:53 pm 15:53 Sunny 97 36.1 59 15 28 28 E 6 9 29.72 1006 10 16 0.00 0.00
4:53 pm 16:53 Mostly Cloudy with Nearby Thunderstorms 96 35.6 56 13.3 26 26 E 3 6 29.70 1006 10 16 0.00 0.00
5:19 pm 17:19 Mostly Cloudy 95 35 63 17.2 35 35 NNE 14 22 29.56 1001 10 16 0.00 0.00
5:44 pm 17:44 Sunny with Thunderstorms 97 36.1 60 15.6 29 29 NE 10 17 29.56 1001 10 16 0.00 0.00
5:53 pm 17:53 Sunny with Thunderstorms 97 36.1 60 15.6 29 29 NE 9 15 29.69 1005 10 16 0.00 0.00
5:59 pm 17:59 Sunny 97 36.1 59 15 28 28 NNE 8 13 29.56 1001 10 16 0.00 0.00
6:53 pm 18:53 Sunny 96 35.6 59 15 29 29 E 6 9 29.69 1006 10 16 0.00 0.00
7:53 pm 19:53 Sunny 95 35 60 15.6 31 31 ENE 6 9 29.69 1006 10 16 0.00 0.00
8:38 pm 20:38 Mostly Cloudy 88 31.1 65 18.3 46 46 SSW 18 30 29.65 1004 10 16 0.00 0.00
8:53 pm 20:53 Mostly Cloudy 87 30.6 64 17.8 46 46 S 17 28 29.74 1007 10 16 0.00 0.00
9:23 pm 21:23 Mostly Clear with Nearby Thunderstorms 84 28.9 65 18.3 53 53 SE 13 20 29.74 1007 10 16 0.00 0.00
9:35 pm 21:35 Clear with Nearby Thunderstorms 82 27.8 66 18.9 58 58 ESE 12 19 29.77 1008 10 16 0.00 0.00
9:42 pm 21:42 Partly Cloudy 81 27.2 66 18.9 61 61 E 8 13 29.77 1008 10 16 0.00 0.00
9:53 pm 21:53 Mostly Cloudy with Light Rain 82 27.8 65 18.3 56 56 ESE 13 20 29.80 1009 10 16 0.00 0.03
10:53 pm 22:53 Clear 79 26.1 65 18.3 62 62 SE 10 17 29.81 1010 10 16 0.00 0.03
11:53 pm 23:53 Clear 80 26.7 65 18.3 60 60 S 5 7 29.82 1010 10 16 0.00 0.00

Powered by AerisWeather